TimeMDT,TemperatureF,Dew PointF,Humidity,Sea Level PressureIn,VisibilityMPH,Wind Direction,Wind SpeedMPH,Gust SpeedMPH,PrecipitationIn,Events,Conditions,WindDirDegrees,DateUTC
12:15 AM,60.8,32.0,34,30.50,10.0,East,5.8,-,N/A,,Clear,90,2013-07-23 06:15:00
12:34 AM,59.0,32.0,36,30.51,10.0,East,3.5,-,N/A,,Clear,80,2013-07-23 06:34:00
12:55 AM,60.8,30.2,31,30.50,10.0,SW,3.5,-,N/A,,Clear,220,2013-07-23 06:55:00
1:15 AM,60.8,32.0,34,30.50,10.0,Calm,Calm,-,N/A,,Clear,0,2013-07-23 07:15:00
1:35 AM,59.0,32.0,36,30.50,10.0,SW,8.1,-,N/A,,Clear,220,2013-07-23 07:35:00
1:55 AM,59.0,32.0,36,30.49,10.0,SW,5.8,-,N/A,,Clear,220,2013-07-23 07:55:00
2:15 AM,57.2,33.8,41,30.48,10.0,SW,11.5,17.3,N/A,,Clear,230,2013-07-23 08:15:00
2:34 AM,57.2,35.6,44,30.48,10.0,SW,8.1,-,N/A,,Clear,230,2013-07-23 08:34:00
2:55 AM,55.4,35.6,47,30.48,10.0,WSW,6.9,-,N/A,,Clear,240,2013-07-23 08:55:00
3:14 AM,57.2,35.6,44,30.48,10.0,SW,6.9,-,N/A,,Clear,220,2013-07-23 09:14:00
3:35 AM,57.2,35.6,44,30.48,10.0,SW,8.1,-,N/A,,Clear,220,2013-07-23 09:35:00
3:55 AM,57.2,35.6,44,30.48,10.0,SSW,9.2,-,N/A,,Clear,210,2013-07-23 09:55:00
4:14 AM,57.2,35.6,44,30.48,10.0,SW,9.2,19.6,N/A,,Clear,230,2013-07-23 10:14:00
4:35 AM,55.4,35.6,47,30.48,10.0,SW,10.4,17.3,N/A,,Clear,220,2013-07-23 10:35:00
4:55 AM,55.4,35.6,47,30.48,10.0,SW,10.4,16.1,N/A,,Clear,230,2013-07-23 10:55:00
5:15 AM,57.2,35.6,44,30.48,10.0,SW,11.5,21.9,N/A,,Clear,220,2013-07-23 11:15:00
5:35 AM,55.4,35.6,47,30.48,10.0,SW,8.1,-,N/A,,Clear,220,2013-07-23 11:35:00
5:54 AM,55.4,35.6,47,30.49,10.0,SW,5.8,-,N/A,,Clear,220,2013-07-23 11:54:00
6:15 AM,57.2,35.6,44,30.49,10.0,SSW,5.8,-,N/A,,Clear,210,2013-07-23 12:15:00
6:34 AM,57.2,35.6,44,30.50,10.0,SW,4.6,-,N/A,,Clear,220,2013-07-23 12:34:00
6:55 AM,57.2,35.6,44,30.50,10.0,SW,4.6,-,N/A,,Clear,230,2013-07-23 12:55:00
7:14 AM,59.0,37.4,45,30.50,10.0,SW,4.6,-,N/A,,Clear,220,2013-07-23 13:14:00
7:35 AM,59.0,37.4,45,30.51,10.0,SW,3.5,-,N/A,,Clear,220,2013-07-23 13:35:00
7:55 AM,59.0,37.4,45,30.51,10.0,SW,3.5,-,N/A,,Clear,230,2013-07-23 13:55:00
8:15 AM,60.8,37.4,42,30.52,10.0,SW,4.6,-,N/A,,Clear,230,2013-07-23 14:15:00
8:35 AM,62.6,39.2,42,30.52,10.0,WSW,4.6,-,N/A,,Clear,240,2013-07-23 14:35:00
8:55 AM,62.6,41.0,45,30.53,10.0,West,4.6,-,N/A,,Clear,260,2013-07-23 14:55:00
9:15 AM,64.4,41.0,42,30.53,10.0,WSW,4.6,-,N/A,,Clear,240,2013-07-23 15:15:00
9:34 AM,66.2,39.2,37,30.53,10.0,West,3.5,-,N/A,,Clear,260,2013-07-23 15:34:00
9:55 AM,68.0,41.0,37,30.54,10.0,West,3.5,-,N/A,,Clear,260,2013-07-23 15:55:00
10:15 AM,68.0,39.2,35,30.54,10.0,WSW,3.5,-,N/A,Thunderstorm,Clear,250,2013-07-23 16:15:00
10:35 AM,69.8,37.4,31,30.54,10.0,West,3.5,-,N/A,,Clear,270,2013-07-23 16:35:00
10:55 AM,71.6,35.6,27,30.54,10.0,Calm,Calm,-,N/A,,Clear,0,2013-07-23 16:55:00
11:15 AM,71.6,35.6,27,30.54,10.0,Calm,Calm,-,N/A,,Clear,0,2013-07-23 17:15:00
11:34 AM,66.2,32.0,28,30.54,10.0,Calm,Calm,-,N/A,,Clear,0,2013-07-23 17:34:00
11:55 AM,75.2,35.6,24,30.52,10.0,ENE,9.2,-,N/A,,Clear,70,2013-07-23 17:55:00
12:14 PM,77.0,33.8,21,30.53,10.0,ENE,9.2,16.1,N/A,,Clear,60,2013-07-23 18:14:00
12:35 PM,78.8,37.4,23,30.52,10.0,ENE,11.5,19.6,N/A,,Clear,60,2013-07-23 18:35:00
12:55 PM,80.6,35.6,20,30.52,10.0,ENE,11.5,19.6,N/A,,Clear,60,2013-07-23 18:55:00
1:14 PM,78.8,37.4,23,30.52,10.0,ENE,10.4,18.4,N/A,,Clear,60,2013-07-23 19:14:00
1:35 PM,73.4,35.6,25,30.52,10.0,ENE,11.5,18.4,N/A,,Clear,70,2013-07-23 19:35:00
1:55 PM,73.4,37.4,27,30.52,10.0,ENE,5.8,17.3,N/A,,Scattered Clouds,60,2013-07-23 19:55:00
2:15 PM,73.4,35.6,25,30.52,10.0,ENE,9.2,20.7,N/A,,Scattered Clouds,70,2013-07-23 20:15:00
2:35 PM,71.6,33.8,25,30.52,10.0,East,10.4,19.6,N/A,,Scattered Clouds,80,2013-07-23 20:35:00
2:54 PM,71.6,33.8,25,30.52,10.0,East,6.9,-,N/A,,Scattered Clouds,80,2013-07-23 20:54:00
3:15 PM,69.8,33.8,27,30.52,10.0,ESE,3.5,-,N/A,,Mostly Cloudy,110,2013-07-23 21:15:00
3:35 PM,68.0,33.8,28,30.52,10.0,Calm,Calm,-,N/A,,Scattered Clouds,0,2013-07-23 21:35:00
3:55 PM,68.0,32.0,26,30.52,10.0,SSW,6.9,-,N/A,,Scattered Clouds,210,2013-07-23 21:55:00
4:15 PM,66.2,33.8,30,30.52,10.0,SW,4.6,-,N/A,,Clear,230,2013-07-23 22:15:00
4:34 PM,66.2,35.6,32,30.52,10.0,SW,3.5,-,N/A,,Clear,220,2013-07-23 22:34:00
4:55 PM,66.2,35.6,32,30.52,10.0,Calm,Calm,-,N/A,,Clear,0,2013-07-23 22:55:00
5:15 PM,66.2,33.8,30,30.51,10.0,Calm,Calm,-,N/A,,Clear,0,2013-07-23 23:15:00
5:33 PM,66.2,33.8,30,30.51,10.0,Calm,Calm,-,N/A,,Clear,0,2013-07-23 23:33:00
5:55 PM,66.2,35.6,32,30.51,10.0,Calm,Calm,-,N/A,,Clear,0,2013-07-23 23:55:00
6:15 PM,66.2,33.8,30,30.51,10.0,SW,4.6,-,N/A,,Scattered Clouds,220,2013-07-24 00:15:00
6:35 PM,64.4,33.8,32,30.51,10.0,SW,8.1,-,N/A,,Mostly Cloudy,230,2013-07-24 00:35:00
6:55 PM,64.4,35.6,34,30.52,10.0,SW,9.2,-,N/A,,Mostly Cloudy,220,2013-07-24 00:55:00
7:15 PM,62.6,33.8,34,30.52,10.0,SW,6.9,-,N/A,,Scattered Clouds,220,2013-07-24 01:15:00
7:35 PM,62.6,33.8,34,30.52,10.0,Calm,Calm,-,N/A,,Mostly Cloudy,0,2013-07-24 01:35:00
7:55 PM,62.6,33.8,34,30.52,10.0,ESE,3.5,-,N/A,,Mostly Cloudy,110,2013-07-24 01:55:00
8:15 PM,60.8,33.8,36,30.54,10.0,South,3.5,-,N/A,,Mostly Cloudy,180,2013-07-24 02:15:00
8:35 PM,60.8,35.6,39,30.54,10.0,South,4.6,-,N/A,,Scattered Clouds,180,2013-07-24 02:35:00
8:54 PM,60.8,33.8,36,30.54,10.0,East,3.5,-,N/A,,Clear,100,2013-07-24 02:54:00
9:15 PM,60.8,35.6,39,30.54,10.0,ENE,4.6,-,N/A,,Clear,60,2013-07-24 03:15:00
9:35 PM,59.0,37.4,45,30.55,10.0,NE,4.6,-,N/A,,Clear,40,2013-07-24 03:35:00
9:55 PM,59.0,41.0,51,30.56,10.0,NE,6.9,-,N/A,,Clear,50,2013-07-24 03:55:00
10:15 PM,59.0,42.8,55,30.56,10.0,ENE,9.2,16.1,N/A,,Clear,60,2013-07-24 04:15:00
10:34 PM,57.2,42.8,59,30.56,10.0,ENE,11.5,17.3,N/A,,Clear,70,2013-07-24 04:34:00
10:55 PM,57.2,42.8,59,30.57,10.0,ENE,10.4,-,N/A,,Clear,60,2013-07-24 04:55:00
11:15 PM,55.4,42.8,63,30.58,10.0,ENE,11.5,16.1,N/A,,Clear,70,2013-07-24 05:15:00
11:35 PM,55.4,42.8,63,30.56,10.0,ENE,13.8,-,N/A,,Clear,70,2013-07-24 05:35:00
11:54 PM,55.4,42.8,63,30.58,10.0,East,9.2,17.3,N/A,,Clear,80,2013-07-24 05:54:00